Location: Gudip?du
(17.0263°N, 80.8301°E)
Time: 07:38:59
(UTC+00:00)

Cosmos 2218 Rocket - Pass Details

Date: 03 August 2024
Orbit: 956 x 1005 km, 82.9° (Epoch: 10 September)

Event Time Altitude Azimuth Distance (km) Brightness Sun altitude
Rises 13:54:55 0° 175° (S) 3,623 6.7 -11.3°
Reaches altitude 10° 13:57:25 10° 172° (S) 2,681 6.0 -11.8°
Maximum altitude 14:03:27 62° 92° (E) 1,074 4.0 -13.2°
Drops below altitude 10° 14:09:32 10° 13° (NNE) 2,709 6.5 -14.5°
Sets 14:12:05 0° 10° (N) 3,664 7.2 -15.0°
